Cairo, Egypt

8:07 PM EET on April 23, 2017 (GMT +0200)
Cairo International

Weather History for HECA - April, 2013

Change the Weather History Date:

Wednesday, April 24, 2013

  Actual Average Record
Temperature  
Mean Temperature 68 °F -  
Max Temperature 79 °F 86 °F 104 °F (2016)
Min Temperature 57 °F 63 °F 37 °F (1998)
Cooling Degree Days 3    
Growing Degree Days 18 (Base 50)    
Moisture  
Dew Point 49 °F    
Average Humidity 55    
Maximum Humidity 88    
Minimum Humidity 20    
Precipitation  
Precipitation 0.00 in 0.00 in - ()
Sea Level Pressure  
Sea Level Pressure 30.09 in    
Wind  
Wind Speed 14 mph ()    
Max Wind Speed 22 mph    
Max Gust Speed -    
Visibility 6.0 miles    
Events      
Averages and records for this station are not official NWS values.
T = Trace of Precipitation, MM = Missing Value Source: Averaged Metar Reports

Daily Weather History Graph

Daily Weather History Graph

Search for Another Location

Airport or City:

Trip Planner

Search our weather history database for the weather conditions in past years. The results will help you decide how hot, cold, wet, or windy it might be!

Date:

Astronomy

Apr. 24, 2013 Rise Set
Actual Time 5:18 AM EET 6:27 PM EET
Civil Twilight 4:53 AM EET 6:52 PM EET
Nautical Twilight 4:23 AM EET 7:22 PM EET
Astronomical Twilight 3:52 AM EET 7:52 PM EET
Moon 5:11 PM EET (4/24) 4:02 AM EET (4/24)
Length of Visible Light 13h 59m
Length of Day
13h 09m
Waxing Gibbous, 97% of the Moon is Illuminated
Apr 24
Waxing Gibbous
Apr 25
Full
May 2
Last Quarter
May 10
New
May 18
First Quarter

Hourly Weather History & Observations

Time (EET) Temp. Dew Point Humidity Pressure Visibility Wind Dir Wind Speed Gust Speed Precip Events Conditions
12:00 AM 62.6 °F 53.6 °F 72% 30.09 in - NE 17.3 mph - N/A   Clear
12:30 AM 62.6 °F 53.6 °F 72% 30.09 in - NE 17.3 mph - N/A   Clear
1:00 AM 60.8 °F 53.6 °F 77% 30.09 in - NE 12.7 mph - N/A   Clear
1:30 AM 60.8 °F 53.6 °F 77% 30.09 in - NE 12.7 mph - N/A   Clear
2:00 AM 60 °F 54 °F 76% 30.08 in 6 mi ENE 13.8 mph - -  
2:00 AM 60.8 °F 55.4 °F 82% 30.06 in - ENE 13.8 mph - N/A   Clear
2:30 AM 60.8 °F 55.4 °F 82% 30.06 in - ENE 13.8 mph - N/A   Clear
3:00 AM 60.8 °F 53.6 °F 77% 30.06 in - ENE 11.5 mph - N/A   Clear
3:30 AM 60.8 °F 53.6 °F 77% 30.06 in - ENE 11.5 mph - N/A   Clear
4:00 AM 59.0 °F 53.6 °F 82% 30.06 in - NE 9.2 mph - N/A   Clear
4:30 AM 59.0 °F 53.6 °F 82% 30.06 in - NE 9.2 mph - N/A   Clear
5:00 AM 57.2 °F 53.6 °F 88% 30.06 in - NE 10.4 mph - N/A   Clear
5:30 AM 57.2 °F 53.6 °F 88% 30.09 in - NE 10.4 mph - N/A   Clear
6:00 AM 57.2 °F 53.6 °F 88% 30.09 in - NE 10.4 mph - N/A   Clear
6:30 AM 59.0 °F 55.4 °F 88% 30.09 in - ENE 15.0 mph - N/A   Clear
7:00 AM 60.8 °F 55.4 °F 82% 30.09 in - NE 16.1 mph - N/A   Clear
7:30 AM 62.6 °F 55.4 °F 77% 30.12 in - NE 17.3 mph - N/A   Clear
8:00 AM 64 °F 55 °F 64% 30.12 in 6 mi NE 2.3 mph - -  
8:00 AM 64.4 °F 55.4 °F 73% 30.09 in - NE 2.3 mph - N/A   Clear
8:30 AM 66.2 °F 53.6 °F 64% 30.12 in - NE 20.7 mph - N/A   Clear
9:00 AM 68.0 °F 51.8 °F 56% 30.12 in - NE 21.9 mph - N/A   Clear
9:30 AM 69.8 °F 51.8 °F 53% 30.12 in - NE 18.4 mph - N/A   Clear
10:00 AM 69.8 °F 51.8 °F 53% 30.12 in - NE 19.6 mph - N/A   Clear
10:30 AM 71.6 °F 51.8 °F 50% 30.12 in - NNE 18.4 mph - N/A   Clear
11:00 AM 73.4 °F 50.0 °F 44% 30.12 in - NNE 18.4 mph - N/A   Clear
11:30 AM 75.2 °F 48.2 °F 38% 30.12 in - NNE 18.4 mph - N/A   Clear
12:00 PM 75.2 °F 46.4 °F 36% 30.09 in - NNE 18.4 mph - N/A   Clear
12:30 PM 78.8 °F 42.8 °F 28% 30.09 in - NE 17.3 mph - N/A   Clear
1:00 PM 77.0 °F 44.6 °F 32% 30.09 in - NNE 19.6 mph - N/A   Clear
1:30 PM 78.8 °F 46.4 °F 32% 30.09 in - NNE 19.6 mph - N/A   Clear
2:00 PM 79 °F 46 °F 20% 30.08 in 6 mi NNE 19.6 mph - -  
2:00 PM 78.8 °F 46.4 °F 32% 30.06 in - NNE 19.6 mph - N/A   Clear
2:30 PM 80.6 °F 37.4 °F 21% 30.06 in - North - - N/A   Clear
3:00 PM 80.6 °F 39.2 °F 23% 30.06 in - NNE 19.6 mph - N/A   Clear
3:30 PM 78.8 °F 37.4 °F 23% 30.06 in - NNE 18.4 mph - N/A   Clear
4:00 PM 78.8 °F 37.4 °F 23% 30.06 in - NNE 18.4 mph - N/A   Clear
4:30 PM 78.8 °F 37.4 °F 23% 30.04 in - NNE 18.4 mph - N/A   Clear
5:00 PM 78.8 °F 42.8 °F 28% 30.06 in - North 19.6 mph - N/A   Clear
5:30 PM 75.2 °F 39.2 °F 27% 30.06 in - North 20.7 mph - N/A   Clear
6:00 PM 75.2 °F 39.2 °F 27% 30.06 in - North 19.6 mph - N/A   Clear
6:30 PM 73.4 °F 39.2 °F 29% 30.06 in - NNE 20.7 mph - N/A   Clear
7:00 PM 71.6 °F 42.8 °F 35% 30.06 in - NNE 19.6 mph - N/A   Clear
7:30 PM 71.6 °F 44.6 °F 38% 30.09 in - NNE 17.3 mph - N/A   Clear
8:00 PM 70 °F 46 °F 31% 30.11 in 6 mi NNE 17.3 mph - -  
8:00 PM 69.8 °F 46.4 °F 43% 30.09 in - NNE 17.3 mph - N/A   Clear
8:30 PM 69.8 °F 48.2 °F 46% 30.09 in - NNE 15.0 mph - N/A   Clear
9:00 PM 68.0 °F 51.8 °F 56% 30.12 in - NNE 16.1 mph - N/A   Clear
9:30 PM 66.2 °F 51.8 °F 60% 30.12 in - NNE 17.3 mph - N/A   Clear
10:00 PM 66.2 °F 51.8 °F 60% 30.12 in - NNE 17.3 mph - N/A   Clear
10:30 PM 66.2 °F 53.6 °F 64% 30.12 in - NNE 16.1 mph - N/A   Clear
11:00 PM 64.4 °F 53.6 °F 68% 30.12 in - NNE 16.1 mph - N/A   Clear
11:30 PM 64.4 °F 53.6 °F 68% 30.12 in - NNE 16.1 mph - N/A   Clear